• In Hungary
  • List of Countries
  • For 7 days
  • Water Temperature
  • Satellite Maps
  • Weather Map
  • News
  • Weather Widgets
  • user-avatar
    Login

    Hourly Weather Sangrave

    Today, 17 February, Saturday

    Time Temperature Precipitation Wind Pressure Humidity
    00:00 +23°C° 0 mm 5 mps 754 mmHg 36%
    01:00 +23°C° 0 mm 5 mps 753 mmHg 38%
    02:00 +22°C° 0 mm 4 mps 753 mmHg 41%
    03:00 +22°C° 0.1 mm 4 mps 753 mmHg 44%
    04:00 +22°C° 0.1 mm 4 mps 753 mmHg 46%
    05:00 +22°C° 0 mm 3 mps 752 mmHg 41%
    06:00 +22°C° 0 mm 4 mps 752 mmHg 40%
    07:00 +23°C° 0 mm 4 mps 752 mmHg 38%
    08:00 +25°C° 0 mm 4 mps 753 mmHg 36%
    09:00 +26°C° 0 mm 4 mps 752 mmHg 33%
    10:00 +28°C° 0 mm 3 mps 752 mmHg 31%
    11:00 +31°C° 0 mm 3 mps 752 mmHg 21%
    12:00 +32°C° 0 mm 2 mps 751 mmHg 20%
    13:00 +34°C° 0 mm 2 mps 750 mmHg 20%
    14:00 +34°C° 0 mm 1 mps 750 mmHg 19%
    15:00 +35°C° 0 mm 2 mps 749 mmHg 19%
    16:00 +35°C° 0 mm 2 mps 749 mmHg 18%
    17:00 +35°C° 0 mm 2 mps 749 mmHg 18%
    18:00 +33°C° 0 mm 3 mps 749 mmHg 19%
    19:00 +31°C° 0 mm 3 mps 750 mmHg 21%
    20:00 +29°C° 0 mm 4 mps 750 mmHg 22%
    21:00 +29°C° 0 mm 4 mps 750 mmHg 23%
    22:00 +28°C° 0 mm 4 mps 750 mmHg 25%
    23:00 +27°C° 0 mm 4 mps 750 mmHg 26%

    Tomorrow, 18 February, Sunday

    Time Temperature Precipitation Wind Pressure Humidity
    00:00 +26°C° 0 mm 5 mps 750 mmHg 27%
    01:00 +26°C° 0 mm 5 mps 749 mmHg 28%
    02:00 +25°C° 0 mm 5 mps 749 mmHg 28%
    03:00 +25°C° 0 mm 5 mps 749 mmHg 29%
    04:00 +25°C° 0 mm 5 mps 749 mmHg 29%
    05:00 +23°C° 0 mm 4 mps 749 mmHg 29%
    06:00 +25°C° 0 mm 5 mps 749 mmHg 28%
    07:00 +26°C° 0 mm 5 mps 749 mmHg 26%
    08:00 +26°C° 0 mm 5 mps 749 mmHg 24%
    09:00 +29°C° 0 mm 5 mps 749 mmHg 21%
    10:00 +32°C° 0 mm 4 mps 749 mmHg 18%
    11:00 +34°C° 0 mm 3 mps 749 mmHg 15%
    12:00 +35°C° 0 mm 3 mps 749 mmHg 15%
    13:00 +36°C° 0 mm 2 mps 748 mmHg 15%
    14:00 +37°C° 0 mm 2 mps 747 mmHg 15%
    15:00 +37°C° 0 mm 2 mps 747 mmHg 15%
    16:00 +37°C° 0 mm 3 mps 747 mmHg 15%
    17:00 +37°C° 0 mm 4 mps 747 mmHg 14%
    18:00 +35°C° 0 mm 4 mps 747 mmHg 15%
    19:00 +33°C° 0 mm 4 mps 748 mmHg 16%
    20:00 +30°C° 0 mm 5 mps 748 mmHg 16%
    21:00 +30°C° 0 mm 5 mps 748 mmHg 17%
    22:00 +29°C° 0 mm 5 mps 748 mmHg 18%
    23:00 +28°C° 0 mm 5 mps 749 mmHg 19%

    Day after tomorrow, 19 February, Monday

    Time Temperature Precipitation Wind Pressure Humidity
    00:00 +27°C° 0 mm 5 mps 748 mmHg 21%
    01:00 +26°C° 0 mm 5 mps 748 mmHg 23%
    02:00 +26°C° 0 mm 5 mps 748 mmHg 24%
    03:00 +25°C° 0 mm 5 mps 748 mmHg 26%
    04:00 +25°C° 0 mm 5 mps 748 mmHg 27%
    05:00 +23°C° 0 mm 5 mps 747 mmHg 28%
    06:00 +25°C° 0 mm 5 mps 748 mmHg 27%
    07:00 +26°C° 0 mm 6 mps 748 mmHg 25%
    08:00 +27°C° 0 mm 6 mps 749 mmHg 24%
    09:00 +29°C° 0 mm 5 mps 749 mmHg 21%
    10:00 +32°C° 0 mm 4 mps 749 mmHg 17%
    11:00 +35°C° 0 mm 3 mps 749 mmHg 13%
    12:00 +36°C° 0 mm 3 mps 748 mmHg 12%
    13:00 +37°C° 0 mm 2 mps 747 mmHg 10%
    14:00 +37°C° 0 mm 1 mps 746 mmHg 8%
    15:00 +38°C° 0 mm 2 mps 746 mmHg 9%
    16:00 +38°C° 0 mm 3 mps 746 mmHg 9%
    17:00 +38°C° 0 mm 4 mps 746 mmHg 9%
    18:00 +36°C° 0 mm 4 mps 747 mmHg 10%
    19:00 +34°C° 0 mm 4 mps 747 mmHg 12%
    20:00 +32°C° 0 mm 4 mps 748 mmHg 13%
    21:00 +30°C° 0 mm 4 mps 748 mmHg 14%
    22:00 +30°C° 0 mm 4 mps 748 mmHg 14%
    23:00 +29°C° 0 mm 4 mps 748 mmHg 15%

    20 February, Tuesday

    Time Temperature Precipitation Wind Pressure Humidity
    00:00 +28°C° 0 mm 4 mps 748 mmHg 16%
    01:00 +27°C° 0 mm 4 mps 748 mmHg 17%
    02:00 +27°C° 0 mm 4 mps 747 mmHg 19%
    03:00 +26°C° 0 mm 3 mps 747 mmHg 20%
    04:00 +26°C° 0 mm 3 mps 747 mmHg 21%
    05:00 +26°C° 0 mm 3 mps 747 mmHg 22%
    06:00 +27°C° 0 mm 3 mps 747 mmHg 21%
    07:00 +28°C° 0 mm 3 mps 748 mmHg 20%
    08:00 +28°C° 0 mm 3 mps 748 mmHg 19%
    09:00 +30°C° 0 mm 3 mps 749 mmHg 17%
    10:00 +34°C° 0 mm 4 mps 749 mmHg 15%
    11:00 +36°C° 0 mm 4 mps 749 mmHg 13%
    12:00 +36°C° 0 mm 5 mps 748 mmHg 12%
    13:00 +37°C° 0 mm 5 mps 747 mmHg 11%
    14:00 +39°C° 0 mm 5 mps 747 mmHg 10%
    15:00 +39°C° 0 mm 6 mps 747 mmHg 10%
    16:00 +38°C° 0 mm 6 mps 747 mmHg 10%
    17:00 +38°C° 0 mm 6 mps 747 mmHg 10%
    18:00 +35°C° 0 mm 5 mps 748 mmHg 12%
    19:00 +33°C° 0 mm 4 mps 748 mmHg 13%
    20:00 +30°C° 0 mm 4 mps 749 mmHg 15%
    21:00 +29°C° 0 mm 4 mps 749 mmHg 16%
    22:00 +29°C° 0 mm 4 mps 749 mmHg 17%
    23:00 +28°C° 0 mm 4 mps 749 mmHg 18%

    21 February, Wednesday

    Time Temperature Precipitation Wind Pressure Humidity
    00:00 +27°C° 0 mm 4 mps 749 mmHg 19%
    01:00 +27°C° 0 mm 4 mps 748 mmHg 21%
    02:00 +26°C° 0 mm 4 mps 748 mmHg 22%
    03:00 +26°C° 0 mm 4 mps 748 mmHg 23%
    04:00 +25°C° 0 mm 4 mps 748 mmHg 24%
    05:00 +25°C° 0 mm 4 mps 748 mmHg 25%
    06:00 +25°C° 0 mm 4 mps 748 mmHg 25%
    07:00 +26°C° 0 mm 4 mps 749 mmHg 24%
    08:00 +26°C° 0 mm 4 mps 749 mmHg 23%
    09:00 +28°C° 0 mm 4 mps 749 mmHg 21%
    10:00 +30°C° 0 mm 4 mps 749 mmHg 19%
    11:00 +32°C° 0 mm 4 mps 749 mmHg 16%
    12:00 +33°C° 0 mm 4 mps 748 mmHg 15%
    13:00 +34°C° 0 mm 4 mps 747 mmHg 13%
    14:00 +35°C° 0 mm 4 mps 746 mmHg 12%
    15:00 +35°C° 0 mm 4 mps 746 mmHg 11%
    16:00 +35°C° 0 mm 5 mps 746 mmHg 11%
    17:00 +34°C° 0 mm 5 mps 746 mmHg 10%
    18:00 +33°C° 0 mm 5 mps 747 mmHg 11%
    19:00 +30°C° 0 mm 4 mps 747 mmHg 12%
    20:00 +28°C° 0 mm 4 mps 748 mmHg 13%
    21:00 +28°C° 0 mm 4 mps 748 mmHg 14%
    22:00 +27°C° 0 mm 4 mps 748 mmHg 14%
    23:00 +26°C° 0 mm 4 mps 748 mmHg 15%

    22 February, Thursday

    Time Temperature Precipitation Wind Pressure Humidity
    00:00 +25°C° 0 mm 4 mps 747 mmHg 16%
    01:00 +23°C° 0 mm 4 mps 747 mmHg 18%
    02:00 +22°C° 0 mm 4 mps 747 mmHg 19%
    03:00 +22°C° 0 mm 4 mps 746 mmHg 20%
    04:00 +21°C° 0 mm 4 mps 746 mmHg 20%
    05:00 +21°C° 0 mm 4 mps 746 mmHg 20%
    06:00 +22°C° 0 mm 4 mps 746 mmHg 19%
    07:00 +22°C° 0 mm 4 mps 747 mmHg 18%
    08:00 +23°C° 0 mm 4 mps 747 mmHg 17%
    09:00 +26°C° 0 mm 3 mps 747 mmHg 16%
    10:00 +28°C° 0 mm 2 mps 747 mmHg 14%
    11:00 +30°C° 0 mm 2 mps 747 mmHg 12%
    12:00 +31°C° 0 mm 3 mps 746 mmHg 11%
    13:00 +33°C° 0 mm 3 mps 745 mmHg 10%
    14:00 +34°C° 0 mm 4 mps 744 mmHg 9%
    15:00 +34°C° 0 mm 5 mps 744 mmHg 9%
    16:00 +34°C° 0 mm 5 mps 745 mmHg 9%
    17:00 +33°C° 0 mm 6 mps 745 mmHg 9%
    18:00 +32°C° 0 mm 5 mps 745 mmHg 10%
    19:00 +29°C° 0 mm 5 mps 746 mmHg 11%
    20:00 +28°C° 0 mm 4 mps 746 mmHg 12%
    21:00 +27°C° 0 mm 4 mps 746 mmHg 13%
    22:00 +26°C° 0 mm 4 mps 746 mmHg 15%
    23:00 +25°C° 0 mm 4 mps 747 mmHg 17%
    Show more